This demonstration page uses our WeatherBlox Daily Observations layout. Learn more.

38.80484, -77.04692

Hourly Observations for April 23, 2019

Temp ( °F °C ) Dew Point ( °F °C ) Humidity (%) Winds ( mph kmh ) Pressure ( in mb ) Visibility ( mi km ) Precip ( " mm )
12:52 am 00:52 Clear 60 15.6 53 11.7 78 78 S 7 11 30.08 1019 10 16.0934 0 0
1:52 am 01:52 Clear 59 15 52 11.1 78 78 S 5 7 30.07 1018 10 16.0934 0 0
2:52 am 02:52 Clear 58 14.4 48 8.9 70 70 SSW 3 6 30.06 1018 10 16.0934 0 0
3:52 am 03:52 Clear 56 13.3 50 10 81 81 S 3 6 30.05 1018 10 16.0934 0 0
4:52 am 04:52 Clear 56 13.3 48 8.9 75 75 S 3 6 30.05 1018 10 16.0934 0 0
5:52 am 05:52 Mostly Clear 54 12.2 47 8.3 77 77 SSW 5 7 30.06 1018 10 16.0934 0 0
6:52 am 06:52 Mostly Sunny 56 13.3 47 8.3 72 72 S 3 6 30.07 1018 10 16.0934 0 0
7:52 am 07:52 Mostly Sunny 61 16.1 49 9.4 65 65 SSE 5 7 30.07 1018 10 16.0934 0 0
8:52 am 08:52 Sunny 63 17.2 51 10.6 65 65 SE 3 6 30.06 1018 10 16.0934 0 0
9:52 am 09:52 Mostly Sunny 69 20.6 50 10 51 51 SE 3 6 30.05 1018 10 16.0934 0 0
10:52 am 10:52 Partly Cloudy 73 22.8 47 8.3 40 40 SSE 7 11 30.03 1017 10 16.0934 0 0
11:52 am 11:52 Mostly Cloudy 75 23.9 49 9.4 40 40 S 10 17 30 1016 10 16.0934 0 0
12:52 pm 12:52 Mostly Cloudy 77 25 50 10 39 39 S 10 17 29.97 1015 10 16.0934 0 0
1:52 pm 13:52 Cloudy 76 24.4 52 11.1 43 43 S 15 24 29.93 1014 10 16.0934 0 0
2:52 pm 14:52 Cloudy 81 27.2 51 10.6 35 35 S 9 15 29.91 1013 10 16.0934 0 0
3:52 pm 15:52 Mostly Cloudy 80 26.7 51 10.6 37 37 S 9 15 29.87 1012 10 16.0934 0 0
4:52 pm 16:52 Partly Cloudy 80 26.7 52 11.1 38 38 S 12 19 29.84 1011 10 16.0934 0 0
5:52 pm 17:52 Partly Cloudy 80 26.7 52 11.1 38 38 S 12 19 29.83 1010 10 16.0934 0 0
6:52 pm 18:52 Partly Cloudy 78 25.6 53 11.7 42 42 S 13 20 29.81 1010 10 16.0934 0 0
7:52 pm 19:52 Mostly Cloudy 75 23.9 53 11.7 46 46 S 10 17 29.81 1009 10 16.0934 0 0
8:52 pm 20:52 Mostly Cloudy 73 22.8 53 11.7 50 50 S 9 15 29.81 1010 10 16.0934 0 0
9:52 pm 21:52 Mostly Cloudy 71 21.7 54 12.2 55 55 S 9 15 29.8 1009 10 16.0934 0 0
10:52 pm 22:52 Partly Cloudy 70 21.1 55 12.8 59 59 S 13 20 29.78 1009 10 16.0934 0 0
11:52 pm 23:52 Partly Cloudy 69 20.6 55 12.8 61 61 S 10 17 29.78 1009 10 16.0934 0 0

Powered by AerisWeather